STARLINK-34187, 63956

Orbit data source: Space-Track

STARLINK-34187, 63956 is a payload satellite owned by SpaceX/Seattle (US) in LEO that was launched on Tue, 13 May 2025 UTC via an FALCON 9 launch vehicle from the Air Force Eastern Test Range (AFETR). Payload-class satellites include a variety of spacecraft equipped with specific instruments for various scientific and technological missions. These include communications satellites like Starlink; space stations such as the ISS; scientific satellites like the Hubble; Earth observation satellites from companies like Planet Labs, Umbra, and HawkEye 360; GPS; miniature CubeSats for education and research; and military/defense satellites.

Loading next visibility...
Identifier
63956, 2025-099E
Orbit
LEO
Country
Flag of USUS
Related business
Manufacturer
SpaceX/Seattle
Mission
Operational Commercial Communications
Bus & Motor
STARLINK V2MO, Unknown motor
Mass
575 kg wet, ~530 kg dry
Launch date (UTC)
2025-05-13 (7 months ago)
Launch vehicle
FALCON 9
Launch site
Air Force Eastern Test Range (AFETR)
Object type
Payload
Rocket body
Debris
Shape & HBR
Box + 2 Pan, 17.7 m
Radar Cross Section
36.964 m², Large (>1 m²)

Expand to show TLE details & history
Last TLE update: 15 hours ago

TLE from 15 hours ago
0 STARLINK-34187
1 63956U 25099E   25346.92373656  .00044820  00000-0  16277-2 0  9998
2 63956  43.0015 306.4855 0001266 274.1057  85.9650 15.27594972 34063
Epoch: 2025-12-12T22:10Z
TLE epoch observation values (Epoch: 2025-12-12T22:10:10.838Z)
Latitude
-0.00003°
Longitude
-107.91808°
Altitude
482.719 km
Speed
7.626 km/s
True Right ascension
20h 25m 56s
True Declination
0° 00' 00"
Sunlit
Object was in daylight at epoch
Visualization orbit readout
Latitude
Unknown
Longitude
Unknown
Altitude
Unknown
Speed
Unknown
Apparent Right ascension
Unknown
Apparent Declination
Unknown
Sunlit
N/A
Visualization observer readout
Local Sidereal Time
11:37:30
Azimuth
Unknown
Elevation
Unknown
Doppler factor
Unknown
Orbital elements
Apogee altitude
485.818 km
Perigee altitude
484.08 km
Semi-major axis
6,863.086 km
Eccentricity
0.00013
Inclination
43.0015°
RAAN
306.4855°
Arg. of periapsis
274.1057°
True anomaly
85.97947°
Mean anomaly
85.965°
Eccentric anomaly
85.97224°
Mean motion
3.81737 °/min
Orbital period
94.31 mins
BSTAR
0.0016277
Loading maneuver chart data...
Computing Atmospheric mass density...
Loading historical data...
Loading historical data...
Loading historical data...
Loading historical data...
Loading historical data...
Loading historical data...
Loading historical data...

Documentation

Showing up to 5 results
|